Location: Unspecified
(34.4950°S, 58.5160°W)
Time: 23:57:14
(UTC+00:00)

Cosmos 2227 Rocket - Pass Details

Date: 19 April 2026
Orbit: 837 x 845 km, 71.0° (Epoch: 16 May)

Event Time Altitude Azimuth Distance (km) Brightness Sun altitude
Exits shadow 08:53:29 15° 322° (NW) 2,153 4.0 -18.6°
Drops below altitude 10° 08:54:37 10° 331° (NNW) 2,454 4.3 -18.4°
Sets 08:57:32 0° 345° (NNW) 3,381 5.2 -17.8°
